Estación Meteorológica Peña el Pijo (Robertgarden) [ 09/29/20 20:47:52 CEST ]

Fecha Hora Presion(HPa) Temp (°C) Humedad % Rocio (°C) Viento ( m/s) Direccion Lluvia 1Hora(mm) Lluvia 24H(mm) LLuvia Total(mm)
2020-May-31 01:09:03 1007.600 - - - - W     39.88
2020-May-31 02:09:33 1007.000 - - - - W     39.88
2020-May-31 03:08:55 1006.300 - - - - W     39.88
2020-May-31 04:09:07 1006.100 - - - - W     39.88
2020-May-31 05:09:24 1006.000 - - - - W     39.88
2020-May-31 06:08:53 1005.800 - - - - W     39.88
2020-May-31 07:09:32 1005.700 - - - - W     39.88
2020-May-31 08:09:27 1005.900 - - - - W     39.88
2020-May-31 09:09:28 1005.900 - - - - W     39.88
2020-May-31 10:09:34 1005.800 - - - - W     39.88
2020-May-31 11:09:16 1005.900 - - - - W     39.88
2020-May-31 12:09:13 1005.700 - - - - W     39.88
2020-May-31 13:09:22 1005.800 - - - - W     39.88
2020-May-31 14:09:17 1005.500 - - - - W     39.88
2020-May-31 15:09:13 1005.400 - - - - W     39.88
2020-May-31 16:09:11 1005.400 - - - - W     39.88
2020-May-31 17:09:03 1006.300 - - - - W     39.88
2020-May-31 18:08:55 1005.600 - - - - W     39.88
2020-May-31 19:09:07 1005.100 - - - - W     39.88
2020-May-31 20:09:16 1005.400 - - - - W     39.88
2020-May-31 21:09:26 1006.000 - - - - W     39.88
2020-May-31 22:09:11 1005.400 - - - - W     39.88
2020-May-31 23:09:29 1006.800 - - - - W     39.88

Temperatura Máxima:    Temperatura Mínima:
Presión Máxima:1007.600 Hpa    Presión Mínima:1005.100 Hpa


Volver